FENGYUN 1C DEB, 43213

Orbit data source: Space-Track

FENGYUN 1C DEB, 43213 is space debris in SSO originally from a launch on Mon, 10 May 1999 UTC launched from the Taiyaun Space Center, China (TSC). Fengyun 1C debris stems from the Chinese weather satellite Fengyun-1C, which was intentionally destroyed by a Chinese anti-satellite missile in 2007. This event dramatically increased the amount of space debris, with thousands of trackable fragments posing hazards to satellites and human spaceflight. The Fengyun 1C debris cloud has become a focal point in discussions about space sustainability and the need for international regulations to prevent the creation of new debris.

Loading next visibility...
Identifier
43213, 1999-025EYM
Orbit
SSO
Country
Flag of CNCN / PRC
Related business
Manufacturer
Unknown
Mission
Spacecraft
Bus & Motor
Unknown
Mass
Unknown
Launch date (UTC)
1999-05-10 (26 years ago)
Launch vehicle
Unknown
Launch site
Taiyaun Space Center, China (TSC)
Object type
Payload
Rocket body
Debris
Shape & HBR
Unknown
Radar Cross Section
Small (<0.1 m²)

Expand to show TLE details & history
Last TLE update: 22 hours ago

TLE from 22 hours ago
0 FENGYUN 1C DEB
1 43213U 99025EYM 25257.15114346  .00001970  00000-0  87918-3 0  9997
2 43213  98.7393 322.1875 0056758 128.3848 232.2448 14.23018273390982
Epoch: 2025-09-14T03:37Z
TLE epoch observation values (Epoch: 2025-09-14T03:37:38.794Z)
Latitude
-0.00001°
Longitude
-85.59841°
Altitude
843.229 km
Speed
7.418 km/s
True Right ascension
21h 28m 45s
True Declination
0° 00' 00"
Sunlit
Object was in full shadow at epoch
Visualization orbit readout
Latitude
Unknown
Longitude
Unknown
Altitude
Unknown
Speed
Unknown
Apparent Right ascension
Unknown
Apparent Declination
Unknown
Sunlit
N/A
Visualization observer readout
Local Sidereal Time
18:44:00
Azimuth
Unknown
Elevation
Unknown
Doppler factor
Unknown
Orbital elements
Apogee altitude
853.131 km
Perigee altitude
771.508 km
Semi-major axis
7,190.456 km
Eccentricity
0.00568
Inclination
98.7393°
RAAN
322.1875°
Arg. of periapsis
128.3848°
True anomaly
231.7328°
Mean anomaly
232.2448°
Eccentric anomaly
231.98858°
Mean motion
3.55966 °/min
Orbital period
101.13 mins
BSTAR
0.00087918
Loading maneuver chart data...
Computing Atmospheric mass density...
Loading historical data...
Loading historical data...
Loading historical data...
Loading historical data...
Loading historical data...
Loading historical data...
Loading historical data...

Documentation

Showing up to 5 results
|